Weather History for Iowa City, IA

Change the Weather History Date:

Saturday, February 8, 2014

  Actual Average Record
Temperature  
Mean Temperature 15 °F 24 °F  
Max Temperature 19 °F 32 °F 59 °F (1990)
Min Temperature 10 °F 16 °F -12 °F (1971)
Degree Days  
Heating Degree Days 50 41  
Month to date heating degree days 462 331  
Since 1 July heating degree days 4822 4198  
Cooling Degree Days 0 0  
Month to date cooling degree days 0 0  
Year to date cooling degree days 0 0  
Moisture  
Dew Point 11 °F    
Average Humidity 77    
Maximum Humidity 88    
Minimum Humidity 66    
Precipitation  
Precipitation 0.07 in 0.04 in 1.22 in (2001)
Month to date precipitation 0.31 0.31  
Year to date precipitation 0.66 1.23  
Sea Level Pressure  
Sea Level Pressure 30.19 in    
Wind  
Wind Speed 4 mph (SSE)    
Max Wind Speed 10 mph    
Max Gust Speed 12 mph    
Visibility 3 miles    
Events Fog , Snow    
T = Trace of Precipitation, MM = Missing Value Source: NWS Daily Summary

Daily Weather History Graph

Daily Weather History Graph

Search for Another Location

Airport:

Trip Planner

Search our weather history database for the weather conditions in past years. The results will help you decide how hot, cold, wet, or windy it might be!

Date:

Astronomy

Feb. 08, 2014 Rise Set
Actual Time 7:10 AM CST 5:30 PM CST
Civil Twilight 6:41 AM CST 5:59 PM CST
Nautical Twilight 6:08 AM CST 6:32 PM CST
Astronomical Twilight 5:36 AM CST 7:05 PM CST
Moon 12:23 PM CST (2/8) 2:24 AM CST (2/8)
Length of Visible Light 11h 18m
Length of Day
10h 20m
Waxing Gibbous, 69% of the Moon is Illuminated
Feb 8
Waxing Gibbous
Feb 14
Full
Feb 22
Last Quarter
Mar 1
New
Mar 8
First Quarter

Hourly Weather History & Observations

Time (CST) Temp. Windchill Dew Point Humidity Pressure Visibility Wind Dir Wind Speed Gust Speed Precip Events Conditions
12:52 AM 10.9 °F 1.4 °F 1.9 °F 67% 30.32 in 10.0 mi South 5.8 mph - N/A   Overcast
1:52 AM 10.9 °F -0.8 °F 3.9 °F 73% 30.31 in 7.0 mi South 8.1 mph - N/A   Overcast
2:52 AM 10.9 °F 2.9 °F 3.9 °F 73% 30.30 in 10.0 mi SSE 4.6 mph - N/A   Overcast
3:52 AM 10.0 °F 1.8 °F 5.0 °F 80% 30.27 in 8.0 mi SSE 4.6 mph - 0.00 in   Overcast
4:52 AM 10.9 °F 4.7 °F 6.1 °F 81% 30.27 in 4.0 mi SE 3.5 mph - 0.00 in Snow Light Snow
5:52 AM 10.9 °F 2.9 °F 7.0 °F 84% 30.26 in 5.0 mi SE 4.6 mph - 0.00 in   Overcast
6:52 AM 10.9 °F 2.9 °F 7.0 °F 84% 30.25 in 5.0 mi ESE 4.6 mph - 0.00 in Snow Light Snow
7:52 AM 10.9 °F 0.2 °F 7.0 °F 84% 30.25 in 1.8 mi SE 6.9 mph - 0.00 in Snow Light Snow
8:04 AM 10.4 °F -0.4 °F 6.8 °F 85% 30.19 in 1.0 mi SE 6.9 mph - 0.00 in Snow Light Snow
8:24 AM 10.4 °F 0.8 °F 8.6 °F 92% 30.19 in 0.5 mi SSE 5.8 mph - 0.00 in Fog , Snow Snow
8:34 AM 10.4 °F -0.4 °F 8.6 °F 92% 30.19 in 0.5 mi SE 6.9 mph - 0.00 in Fog , Snow Light Snow
8:43 AM 10.4 °F -0.4 °F 8.6 °F 92% 30.19 in 0.8 mi SE 6.9 mph - 0.00 in Snow Light Snow
8:52 AM 12.0 °F 2.7 °F 8.1 °F 84% 30.23 in 0.8 mi SE 5.8 mph - 0.00 in Snow Light Snow
9:04 AM 12.2 °F 2.9 °F 8.6 °F 85% 30.19 in 1.0 mi SSE 5.8 mph - 0.00 in Snow Light Snow
9:12 AM 12.2 °F 4.3 °F 8.6 °F 85% 30.20 in 0.5 mi SE 4.6 mph - 0.01 in Fog , Snow Snow
9:27 AM 12.2 °F 1.7 °F 8.6 °F 85% 30.18 in 0.2 mi ESE 6.9 mph - 0.01 in Fog , Snow Snow
9:52 AM 12.0 °F 1.5 °F 9.0 °F 88% 30.23 in 0.2 mi SE 6.9 mph - 0.04 in Fog , Snow Heavy Snow
9:59 AM 12.2 °F 2.9 °F 8.6 °F 85% 30.19 in 0.2 mi SE 5.8 mph - 0.01 in Fog , Snow Heavy Snow
10:08 AM 12.2 °F 2.9 °F 8.6 °F 85% 30.19 in 0.2 mi SE 5.8 mph - 0.02 in Fog , Snow Snow
10:28 AM 12.2 °F 1.7 °F 10.4 °F 92% 30.18 in 0.5 mi SE 6.9 mph - 0.02 in Fog , Snow Light Snow
10:39 AM 12.2 °F 2.9 °F 10.4 °F 92% 30.18 in 1.0 mi SE 5.8 mph - 0.03 in Snow Light Snow
10:49 AM 14.0 °F 3.9 °F 10.4 °F 86% 30.18 in 1.5 mi SE 6.9 mph - 0.03 in Snow Light Snow
10:52 AM 14.0 °F 5.1 °F 10.0 °F 84% 30.22 in 1.5 mi SE 5.8 mph - 0.03 in Snow Light Snow
11:03 AM 14.0 °F 6.5 °F 10.4 °F 86% 30.18 in 1.8 mi SE 4.6 mph - 0.00 in Snow Light Snow
11:16 AM 14.0 °F 6.5 °F 10.4 °F 86% 30.17 in 2.0 mi ESE 4.6 mph - 0.00 in Snow Light Snow
11:27 AM 14.0 °F 6.5 °F 10.4 °F 86% 30.17 in 1.8 mi ESE 4.6 mph - 0.00 in Snow Light Snow
11:36 AM 14.0 °F 5.1 °F 10.4 °F 86% 30.16 in 2.0 mi SE 5.8 mph - 0.00 in Snow Light Snow
11:52 AM 15.1 °F 5.2 °F 10.9 °F 84% 30.20 in 2.0 mi SE 6.9 mph - 0.00 in Snow Light Snow
12:11 PM 15.8 °F 7.2 °F 10.4 °F 79% 30.15 in 2.0 mi SSE 5.8 mph - 0.00 in Snow Light Snow
12:22 PM 15.8 °F 8.6 °F 12.2 °F 86% 30.14 in 1.8 mi South 4.6 mph - 0.00 in Snow Light Snow
12:35 PM 15.8 °F 4.2 °F 12.2 °F 86% 30.13 in 2.0 mi South 9.2 mph - 0.00 in Snow Light Snow
12:52 PM 16.0 °F 4.4 °F 12.0 °F 84% 30.16 in 2.0 mi South 9.2 mph - 0.00 in Snow Light Snow
1:01 PM 15.8 °F 6.1 °F 12.2 °F 86% 30.12 in 2.0 mi South 6.9 mph - 0.00 in Snow Light Snow
1:17 PM 17.6 °F 8.2 °F 12.2 °F 79% 30.12 in 3.0 mi SSW 6.9 mph - 0.00 in   Overcast
1:52 PM 17.1 °F 7.6 °F 12.9 °F 84% 30.14 in 4.0 mi SSW 6.9 mph - 0.00 in   Overcast
2:52 PM 18.0 °F 12.7 °F 12.9 °F 81% 30.14 in 4.0 mi South 3.5 mph - 0.00 in Snow Light Snow
3:49 PM 17.6 °F - 14.0 °F 86% 30.12 in 2.5 mi Calm Calm - 0.00 in Snow Light Snow
3:52 PM 18.0 °F - 14.0 °F 84% 30.16 in 2.0 mi Calm Calm - 0.00 in Snow Light Snow
4:07 PM 17.6 °F - 14.0 °F 86% 30.12 in 1.5 mi Calm Calm - 0.00 in Snow Light Snow
4:20 PM 17.6 °F 12.3 °F 14.0 °F 86% 30.12 in 2.5 mi SW 3.5 mph - 0.00 in Snow Light Snow
4:29 PM 17.6 °F - 14.0 °F 86% 30.12 in 3.0 mi Calm Calm - 0.00 in Snow Light Snow
4:39 PM 17.6 °F - 14.0 °F 86% 30.12 in 2.5 mi Calm Calm - 0.00 in Snow Light Snow
4:52 PM 18.0 °F 12.7 °F 14.0 °F 84% 30.16 in 2.5 mi SSW 3.5 mph - 0.00 in Snow Light Snow
5:10 PM 17.6 °F - 14.0 °F 86% 30.12 in 1.5 mi Calm Calm - 0.00 in Snow Light Snow
5:36 PM 17.6 °F - 14.0 °F 86% 30.13 in 2.5 mi Calm Calm - 0.00 in Snow Light Snow
5:52 PM 18.0 °F - 14.0 °F 84% 30.17 in 5.0 mi Calm Calm - 0.00 in   Overcast
6:52 PM 17.1 °F - 14.0 °F 88% 30.19 in 5.0 mi Calm Calm - N/A   Overcast
7:52 PM 18.0 °F - 14.0 °F 84% 30.20 in 6.0 mi Calm Calm - N/A   Overcast
8:52 PM 18.0 °F 12.7 °F 14.0 °F 84% 30.20 in 6.0 mi NW 3.5 mph - N/A   Overcast
9:38 PM 17.6 °F 12.3 °F 14.0 °F 86% 30.16 in 6.0 mi NW 3.5 mph - N/A   Overcast
9:52 PM 18.0 °F 12.7 °F 14.0 °F 84% 30.20 in 6.0 mi NNW 3.5 mph - N/A   Overcast
10:52 PM 17.1 °F 8.7 °F 12.0 °F 81% 30.20 in 8.0 mi NNW 5.8 mph - N/A   Overcast
11:52 PM 16.0 °F 7.4 °F 10.9 °F 81% 30.20 in 9.0 mi NNW 5.8 mph - N/A   Mostly Cloudy